When you browse on this site, cookies collect data to enhance your experience and personalize the content and advertising you see.
Visit our Privacy Policy to learn more. By continuing to use the site, you agree to this use of cookies and data.
  • In Czech Republic
  • List of Countries
  • For 7 days
  • Water Temperature
  • Satellite Maps
  • Weather Map
  • Weather Widgets
  • user-avatar
    Login

    Hourly Weather Pilica

    Today, 21 January, Monday

    Time Temperature Precipitation Wind Pressure Humidity
    00:00 -6°C° 0 mm 1 mps 731 mmHg 81%
    01:00 -6°C° 0 mm 1 mps 732 mmHg 82%
    02:00 -7°C° 0 mm 1 mps 732 mmHg 82%
    03:00 -7°C° 0 mm 1 mps 732 mmHg 83%
    04:00 -7°C° 0 mm 1 mps 732 mmHg 84%
    05:00 -7°C° 0 mm 1 mps 732 mmHg 84%
    06:00 -7°C° 0 mm 1 mps 732 mmHg 84%
    07:00 -7°C° 0 mm 1 mps 733 mmHg 86%
    08:00 -6°C° 0 mm 1 mps 733 mmHg 83%
    09:00 -6°C° 0 mm 1 mps 733 mmHg 81%
    10:00 -4°C° 0 mm 1 mps 733 mmHg 78%
    11:00 -3°C° 0 mm 1 mps 733 mmHg 75%
    12:00 -2°C° 0 mm 1 mps 733 mmHg 73%
    13:00 -3°C° 0 mm 1 mps 733 mmHg 75%
    14:00 -3°C° 0 mm 1 mps 732 mmHg 77%
    15:00 -4°C° 0 mm 1 mps 732 mmHg 80%
    16:00 -4°C° 0 mm 1 mps 732 mmHg 82%
    17:00 -6°C° 0 mm 1 mps 732 mmHg 82%
    18:00 -6°C° 0 mm 1 mps 731 mmHg 83%
    19:00 -6°C° 0 mm 1 mps 731 mmHg 83%
    20:00 -6°C° 0 mm 1 mps 731 mmHg 83%
    21:00 -8°C° 0 mm 2 mps 731 mmHg 83%
    22:00 -8°C° 0 mm 2 mps 731 mmHg 83%
    23:00 -8°C° 0 mm 2 mps 731 mmHg 83%

    Tomorrow, 22 January, Tuesday

    Time Temperature Precipitation Wind Pressure Humidity
    00:00 -8°C° 0 mm 2 mps 730 mmHg 83%
    01:00 -8°C° 0 mm 2 mps 730 mmHg 83%
    02:00 -7°C° 0 mm 1 mps 730 mmHg 82%
    03:00 -7°C° 0 mm 1 mps 729 mmHg 81%
    04:00 -7°C° 0 mm 1 mps 729 mmHg 80%
    05:00 -7°C° 0 mm 1 mps 729 mmHg 80%
    06:00 -7°C° 0 mm 1 mps 729 mmHg 80%
    07:00 -7°C° 0 mm 1 mps 728 mmHg 79%
    08:00 -6°C° 0 mm 1 mps 728 mmHg 77%
    09:00 -6°C° 0 mm 1 mps 728 mmHg 76%
    10:00 -6°C° 0 mm 2 mps 728 mmHg 74%
    11:00 -3°C° 0 mm 1 mps 727 mmHg 72%
    12:00 -3°C° 0 mm 1 mps 727 mmHg 70%
    13:00 -2°C° 0 mm 1 mps 726 mmHg 68%
    14:00 -3°C° 0 mm 1 mps 726 mmHg 72%
    15:00 -5°C° 0 mm 2 mps 726 mmHg 75%
    16:00 -6°C° 0 mm 2 mps 725 mmHg 79%
    17:00 -7°C° 0 mm 2 mps 725 mmHg 81%
    18:00 -7°C° 0 mm 2 mps 725 mmHg 83%
    19:00 -8°C° 0 mm 2 mps 724 mmHg 85%
    20:00 -8°C° 0 mm 2 mps 724 mmHg 87%
    21:00 -8°C° 0 mm 2 mps 724 mmHg 89%
    22:00 -8°C° 0 mm 2 mps 723 mmHg 92%
    23:00 -9°C° 0 mm 3 mps 723 mmHg 93%

    Day after tomorrow, 23 January, Wednesday

    Time Temperature Precipitation Wind Pressure Humidity
    00:00 -9°C° 0 mm 3 mps 723 mmHg 94%
    01:00 -9°C° 0 mm 3 mps 723 mmHg 95%
    02:00 -9°C° 0 mm 3 mps 722 mmHg 94%
    03:00 -10°C° 0 mm 4 mps 722 mmHg 92%
    04:00 -9°C° 0 mm 4 mps 721 mmHg 91%
    05:00 -9°C° 0 mm 4 mps 721 mmHg 89%
    06:00 -9°C° 0 mm 4 mps 721 mmHg 88%
    07:00 -9°C° 0 mm 4 mps 721 mmHg 87%
    08:00 -9°C° 0 mm 4 mps 721 mmHg 85%
    09:00 -9°C° 0 mm 4 mps 721 mmHg 84%
    10:00 -8°C° 0 mm 5 mps 721 mmHg 82%
    11:00 -8°C° 0 mm 5 mps 721 mmHg 81%
    12:00 -8°C° 0 mm 5 mps 721 mmHg 80%
    13:00 -8°C° 0 mm 5 mps 720 mmHg 79%
    14:00 -8°C° 0 mm 5 mps 720 mmHg 80%
    15:00 -8°C° 0 mm 4 mps 721 mmHg 81%
    16:00 -9°C° 0 mm 4 mps 721 mmHg 82%
    17:00 -9°C° 0 mm 4 mps 721 mmHg 83%
    18:00 -9°C° 0 mm 4 mps 721 mmHg 84%
    19:00 -10°C° 0 mm 4 mps 722 mmHg 85%
    20:00 -10°C° 0 mm 4 mps 722 mmHg 86%
    21:00 -10°C° 0 mm 4 mps 723 mmHg 86%
    22:00 -10°C° 0 mm 4 mps 723 mmHg 87%
    23:00 -10°C° 0 mm 4 mps 723 mmHg 86%

    24 January, Thursday

    Time Temperature Precipitation Wind Pressure Humidity
    00:00 -10°C° 0 mm 4 mps 723 mmHg 86%
    01:00 -10°C° 0 mm 4 mps 724 mmHg 85%
    02:00 -9°C° 0 mm 3 mps 724 mmHg 86%
    03:00 -10°C° 0 mm 3 mps 724 mmHg 86%
    04:00 -10°C° 0 mm 3 mps 724 mmHg 86%
    05:00 -10°C° 0 mm 3 mps 725 mmHg 87%
    06:00 -10°C° 0 mm 3 mps 725 mmHg 88%
    07:00 -10°C° 0 mm 3 mps 725 mmHg 89%
    08:00 -10°C° 0 mm 3 mps 726 mmHg 87%
    09:00 -9°C° 0 mm 3 mps 726 mmHg 86%
    10:00 -9°C° 0 mm 3 mps 726 mmHg 85%
    11:00 -8°C° 0 mm 3 mps 726 mmHg 83%
    12:00 -8°C° 0 mm 3 mps 726 mmHg 81%
    13:00 -7°C° 0 mm 3 mps 726 mmHg 79%
    14:00 -7°C° 0 mm 3 mps 727 mmHg 80%
    15:00 -7°C° 0 mm 3 mps 727 mmHg 81%
    16:00 -8°C° 0 mm 3 mps 727 mmHg 82%
    17:00 -8°C° 0 mm 3 mps 727 mmHg 83%
    18:00 -7°C° 0 mm 2 mps 728 mmHg 84%
    19:00 -7°C° 0 mm 2 mps 728 mmHg 86%
    20:00 -7°C° 0 mm 2 mps 728 mmHg 87%
    21:00 -8°C° 0 mm 2 mps 728 mmHg 88%
    22:00 -8°C° 0 mm 2 mps 729 mmHg 89%
    23:00 -8°C° 0 mm 2 mps 729 mmHg 90%

    25 January, Friday

    Time Temperature Precipitation Wind Pressure Humidity
    00:00 -7°C° 0 mm 1 mps 729 mmHg 91%
    01:00 -8°C° 0 mm 1 mps 729 mmHg 92%
    02:00 -7°C° 0 mm 1 mps 728 mmHg 92%
    03:00 -7°C° 0 mm 1 mps 728 mmHg 92%
    04:00 -7°C° 0 mm 1 mps 728 mmHg 92%
    05:00 -7°C° 0 mm 1 mps 728 mmHg 91%
    06:00 -7°C° 0 mm 1 mps 728 mmHg 90%
    07:00 -7°C° 0 mm 1 mps 729 mmHg 89%
    08:00 -7°C° 0 mm 1 mps 729 mmHg 86%
    09:00 -6°C° 0 mm 1 mps 729 mmHg 83%
    10:00 -6°C° 0 mm 1 mps 729 mmHg 81%
    11:00 -6°C° 0 mm 1 mps 729 mmHg 79%
    12:00 -4°C° 0 mm 1 mps 728 mmHg 77%
    13:00 -4°C° 0 mm 1 mps 728 mmHg 76%
    14:00 -4°C° 0 mm 1 mps 728 mmHg 77%
    15:00 -4°C° 0 mm 1 mps 728 mmHg 78%
    16:00 -4°C° 0 mm 1 mps 728 mmHg 79%
    17:00 -4°C° 0 mm 1 mps 728 mmHg 79%
    18:00 -4°C° 0 mm 1 mps 728 mmHg 80%
    19:00 -6°C° 0 mm 1 mps 729 mmHg 81%
    20:00 -6°C° 0 mm 1 mps 729 mmHg 82%
    21:00 -6°C° 0 mm 1 mps 728 mmHg 83%
    22:00 -6°C° 0 mm 1 mps 728 mmHg 85%
    23:00 -7°C° 0 mm 1 mps 728 mmHg 86%

    26 January, Saturday

    Time Temperature Precipitation Wind Pressure Humidity
    00:00 -7°C° 0 mm 1 mps 728 mmHg 87%
    01:00 -8°C° 0 mm 1 mps 727 mmHg 89%
    02:00 -8°C° 0 mm 1 mps 727 mmHg 89%
    03:00 -8°C° 0 mm 1 mps 727 mmHg 89%
    04:00 -8°C° 0 mm 1 mps 726 mmHg 89%
    05:00 -9°C° 0 mm 2 mps 726 mmHg 88%
    06:00 -9°C° 0 mm 2 mps 726 mmHg 87%
    07:00 -10°C° 0 mm 3 mps 725 mmHg 86%
    08:00 -9°C° 0 mm 3 mps 725 mmHg 83%
    09:00 -9°C° 0 mm 3 mps 725 mmHg 79%
    10:00 -8°C° 0 mm 3 mps 725 mmHg 76%
    11:00 -7°C° 0 mm 3 mps 724 mmHg 72%
    12:00 -7°C° 0 mm 4 mps 723 mmHg 68%
    13:00 -5°C° 0 mm 4 mps 723 mmHg 63%
    14:00 -5°C° 0 mm 3 mps 722 mmHg 67%
    15:00 -4°C° 0 mm 3 mps 722 mmHg 72%
    16:00 -4°C° 0 mm 3 mps 721 mmHg 76%
    17:00 -4°C° 0 mm 4 mps 721 mmHg 80%
    18:00 -4°C° 0 mm 4 mps 721 mmHg 84%
    19:00 -4°C° 0 mm 4 mps 720 mmHg 88%
    20:00 -3°C° 0.3 mm 4 mps 720 mmHg 89%
    21:00 -4°C° 0.3 mm 5 mps 720 mmHg 89%
    22:00 -4°C° 0.3 mm 5 mps 720 mmHg 90%
    23:00 -2°C° 0.1 mm 5 mps 719 mmHg 89%
    Show more